TimeEST,TemperatureF,Dew PointF,Humidity,Sea Level PressureIn,VisibilityMPH,Wind Direction,Wind SpeedMPH,Gust SpeedMPH,PrecipitationIn,Events,Conditions,WindDirDegrees,DateUTC
12:27 AM,21.2,12.2,68,30.31,10.0,WNW,6.9,-,N/A,,Mostly Cloudy,290,2013-02-22 05:27:00
12:54 AM,21.9,12.9,68,30.34,10.0,NNW,3.5,-,N/A,,Overcast,340,2013-02-22 05:54:00
1:12 AM,21.2,12.2,68,30.30,10.0,NNW,3.5,-,N/A,,Mostly Cloudy,340,2013-02-22 06:12:00
1:54 AM,23.0,12.9,65,30.33,10.0,North,3.5,-,N/A,,Overcast,360,2013-02-22 06:54:00
2:54 AM,27.0,15.1,61,30.32,10.0,North,11.5,21.9,N/A,,Mostly Cloudy,360,2013-02-22 07:54:00
3:03 AM,26.6,15.8,64,30.29,10.0,Variable,6.9,26.5,N/A,,Scattered Clouds,0,2013-02-22 08:03:00
3:54 AM,27.0,15.1,61,30.32,10.0,South,6.9,-,N/A,,Partly Cloudy,180,2013-02-22 08:54:00
4:09 AM,26.6,15.8,64,30.28,10.0,Variable,6.9,-,N/A,,Mostly Cloudy,0,2013-02-22 09:09:00
4:54 AM,27.0,15.1,61,30.33,10.0,Calm,Calm,-,N/A,,Overcast,0,2013-02-22 09:54:00
5:41 AM,26.6,15.8,64,30.34,10.0,Calm,Calm,-,N/A,,Scattered Clouds,0,2013-02-22 10:41:00
5:54 AM,26.1,15.1,63,30.37,10.0,Calm,Calm,-,N/A,,Partly Cloudy,0,2013-02-22 10:54:00
6:36 AM,26.6,15.8,64,30.37,10.0,Calm,Calm,-,N/A,,Mostly Cloudy,0,2013-02-22 11:36:00
6:54 AM,25.0,15.1,66,30.41,10.0,Calm,Calm,-,N/A,,Overcast,0,2013-02-22 11:54:00
7:36 AM,24.8,15.8,69,30.38,10.0,Calm,Calm,-,N/A,,Scattered Clouds,0,2013-02-22 12:36:00
7:54 AM,27.0,16.0,63,30.42,10.0,Calm,Calm,-,N/A,,Clear,0,2013-02-22 12:54:00
8:54 AM,28.9,16.0,58,30.43,10.0,North,6.9,-,N/A,,Clear,360,2013-02-22 13:54:00
9:54 AM,30.9,16.0,54,30.42,10.0,Variable,3.5,-,N/A,,Clear,0,2013-02-22 14:54:00
10:54 AM,30.9,17.1,57,30.39,10.0,ENE,5.8,-,N/A,,Clear,70,2013-02-22 15:54:00
11:54 AM,34.0,16.0,48,30.38,10.0,East,3.5,-,N/A,,Clear,100,2013-02-22 16:54:00
12:54 PM,34.0,15.1,46,30.36,10.0,Calm,Calm,-,N/A,,Clear,0,2013-02-22 17:54:00
2:54 PM,35.1,15.1,44,30.34,10.0,WSW,3.5,-,N/A,,Clear,250,2013-02-22 19:54:00
3:54 PM,36.0,14.0,41,30.30,10.0,Calm,Calm,-,N/A,,Clear,0,2013-02-22 20:54:00
4:54 PM,36.0,14.0,41,30.30,10.0,Calm,Calm,-,N/A,,Clear,0,2013-02-22 21:54:00
5:54 PM,32.0,17.1,54,30.31,10.0,Calm,Calm,-,N/A,,Clear,0,2013-02-22 22:54:00
6:54 PM,28.9,18.0,64,30.31,10.0,Calm,Calm,-,N/A,,Clear,0,2013-02-22 23:54:00
7:54 PM,28.0,19.0,69,30.32,10.0,Calm,Calm,-,N/A,,Clear,0,2013-02-23 00:54:00
8:54 PM,28.9,19.0,67,30.31,10.0,Calm,Calm,-,N/A,,Partly Cloudy,0,2013-02-23 01:54:00
9:54 PM,30.0,18.0,61,30.31,10.0,Calm,Calm,-,N/A,,Overcast,0,2013-02-23 02:54:00
10:54 PM,30.0,18.0,61,30.31,10.0,Calm,Calm,-,N/A,,Overcast,0,2013-02-23 03:54:00
11:54 PM,30.0,18.0,61,30.30,10.0,Calm,Calm,-,N/A,,Overcast,0,2013-02-23 04:54:00